Temperature
12 12 13 13 13 14 14 14 14 14 15 15 15 15 15 15 15 15 15 15 15 15 15 15 15 15 15 15 15 15 15 15 15 15 15 15 14 15 15 14 14 14 14
12 12 13 13 13 13 13 14 14 14 14 14 14 15 15 15 15 15 14 14 14 15 15 15 14 15 15 15 15 15 15 15 15 14 14 14 14 14 14 14 14 14 14
12 12 12 12 12 13 13 13 14 14 14 14 14 14 14 14 14 14 14 14 14 14 14 14 14 14 14 14 14 14 14 14 14 14 14 13 14 14 14 14 14 14 14
11 12 12 12 12 12 13 13 13 13 14 14 14 14 14 14 14 14 14 14 14 14 14 14 14 14 14 14 14 14 14 14 14 14 13 13 13 13 13 14 14 14 14
11 11 12 12 12 12 13 13 13 13 13 14 14 14 14 14 14 14 14 14 14 14 14 14 14 14 14 14 14 14 14 14 14 13 13 13 13 13 13 13 13 13 13
11 11 11 12 12 12 12 12 13 13 13 13 13 13 14 14 14 14 14 14 14 13 13 13 13 13 13 13 14 14 14 14 13 13 13 13 13 13 13 13 13 13 13
10 10 11 11 11 12 12 12 12 12 13 13 13 13 13 13 13 13 13 13 13 13 13 13 13 13 13 13 13 13 13 13 13 12 12 12 12 13 13 13 13 13 13
10 10 10 11 11 11 12 12 12 12 12 12 13 13 13 13 13 13 13 13 13 13 13 13 13 13 13 13 13 13 13 13 12 12 12 12 12 12 12 12 12 12 12
9 10 10 10 11 11 11 11 12 12 12 12 12 12 13 13 13 13 13 13 13 13 13 12 12 12 12 12 12 13 13 12 12 12 12 12 12 12 12 12 12 12 12
9 9 10 10 10 10 11 11 11 11 11 11 12 12 12 12 12 12 12 12 12 12 12 12 12 12 12 12 12 12 12 12 11 11 11 11 12 12 12 12 12 12 12
9 9 9 9 10 10 10 10 11 11 11 11 11 11 11 12 12 12 12 12 12 12 12 12 12 12 12 12 12 12 12 11 11 11 11 11 11 11 11 11 11 11 12
8 8 9 9 9 9 10 10 10 10 10 10 11 11 11 11 11 11 11 11 12 12 12 12 12 12 11 11 11 11 11 11 11 11 11 11 11 11 11 11 11 11 11
7 8 8 8 9 9 9 9 9 10 10 10 10 10 10 11 11 11 11 11 11 11 11 11 11 11 11 11 11 11 11 11 11 11 11 11 11 11 11 11 11 11 11
7 7 8 8 8 8 9 9 9 9 9 10 10 10 10 10 10 10 10 10 10 11 11 11 11 11 10 10 10 10 10 10 10 10 11 11 11 11 11 11 11 11 11
6 7 7 7 7 8 8 8 8 8 9 9 9 9 10 10 10 10 10 10 10 10 10 10 10 10 10 10 10 10 10 10 10 10 10 10 11 11 11 10 11 11 10
6 6 7 7 7 7 7 7 8 8 8 8 9 9 9 9 9 9 9 9 9 10 10 10 10 10 10 10 10 10 10 9 10 10 10 10 10 10 10 10 10 10 10
5 5 6 6 6 7 7 7 7 7 7 8 8 8 8 9 9 9 9 9 9 9 9 9 9 9 9 9 9 9 9 9 9 9 9 10 10 10 10 10 10 10 10
5 5 5 5 6 6 6 6 6 6 7 7 7 8 8 8 8 8 8 8 9 9 9 9 9 9 9 9 9 9 9 9 9 9 9 9 9 9 9 9 9 9 9
4 4 5 5 5 5 5 6 6 6 6 6 7 7 7 7 8 8 8 8 8 8 8 8 8 8 8 8 8 8 8 8 8 8 8 8 8 9 9 9 9 9 9
4 4 4 4 4 5 5 5 5 5 5 6 6 6 7 7 7 7 7 8 8 7 8 8 8 8 8 8 8 8 8 8 8 8 8 8 8 8 8 8 8 8 8
3 3 3 4 4 4 4 4 4 5 5 5 6 6 6 6 6 7 7 7 7 7 7 7 7 7 7 7 7 7 7 7 7 7 7 7 8 8 7 8 8 8 8
3 3 3 3 3 3 4 4 4 4 4 5 5 5 5 6 6 6 6 6 6 6 6 6 6 6 6 6 6 6 6 6 6 7 7 7 7 7 7 7 7 7 8
2 2 2 2 3 3 3 3 3 3 4 4 5 5 5 5 5 6 6 6 6 6 6 6 6 6 6 6 6 6 6 6 6 6 6 6 6 6 7 7 7 7 7
1 2 2 2 2 2 2 3 3 3 3 4 4 4 4 5 5 5 5 5 5 5 6 6 6 6 6 5 5 5 6 6 5 5 5 6 6 6 6 6 6 6 6
1 1 1 2 2 2 2 2 2 2 3 3 3 3 4 4 4 4 5 5 5 5 5 5 5 5 5 5 5 5 5 6 6 5 5 5 5 5 5 6 6 6 6
1 1 1 1 1 2 2 2 2 2 2 2 3 3 3 3 4 4 4 4 4 4 4 4 5 5 5 5 5 5 5 5 5 5 5 5 5 5 5 5 5 5 5
Wind_Speed
2 5 6 7 6 5 6 5 6 6 7 8 8 9 9 9 9 10 10 10 11 12 12 13 13 14 14 15 15 16 16 16 16 17 17 17 16 16 15 14 13 16 17
3 4 5 6 6 5 6 6 6 7 7 8 8 8 9 9 9 9 9 10 10 11 12 13 13 13 14 15 15 15 15 15 16 15 15 15 15 15 15 15 15 15 16
4 4 3 5 6 5 5 6 6 6 7 7 8 8 8 9 8 9 9 9 10 11 12 13 13 13 14 14 15 15 14 14 14 11 9 12 14 15 15 16 16 16 16
4 4 4 5 6 5 5 6 6 6 6 7 7 8 8 9 9 8 8 9 10 11 12 12 12 13 13 14 14 14 14 13 11 6 9 11 12 14 14 15 15 15 16
4 4 5 6 5 6 4 5 6 6 6 6 7 7 8 8 9 8 8 9 10 11 11 12 12 12 13 13 13 13 13 12 8 7 10 10 11 12 13 13 14 14 15
4 4 5 7 6 5 4 4 5 4 5 5 7 7 8 8 8 9 8 9 9 10 11 11 11 12 12 12 12 12 11 9 7 9 9 10 11 12 12 12 13 13 14
3 4 5 7 6 5 4 4 4 4 4 5 6 7 7 7 8 8 8 9 9 9 10 11 11 11 12 12 12 11 10 7 7 9 9 9 11 11 12 11 12 12 13
3 4 4 5 6 6 5 4 4 4 4 5 5 7 7 7 7 8 8 8 8 8 9 10 11 11 11 11 11 10 8 6 7 8 8 9 10 10 11 11 11 11 12
4 4 4 3 4 5 5 4 4 5 5 5 5 6 7 7 8 8 7 7 8 8 9 9 10 11 11 11 10 10 8 5 6 7 7 8 10 9 10 10 10 11 11
3 4 4 4 4 3 2 4 4 4 5 5 5 5 6 7 7 7 7 7 7 8 9 9 10 10 11 10 10 9 8 5 6 6 6 8 9 8 9 9 9 10 10
4 4 4 4 4 4 2 2 3 3 4 4 4 5 4 5 5 6 6 7 7 8 9 10 10 10 10 10 9 8 6 4 6 5 6 9 8 7 7 8 8 8 9
4 4 4 4 4 3 3 2 1 1 2 3 3 3 3 3 3 4 6 7 7 8 9 10 10 9 7 7 7 6 4 4 5 5 7 8 7 7 7 7 7 7 8
3 4 4 4 4 3 2 2 2 1 1 2 2 3 3 3 3 3 4 5 6 7 7 8 8 6 5 5 5 5 4 4 4 5 6 7 6 6 6 6 6 7 7
3 3 3 3 3 3 2 2 1 1 1 1 1 2 2 2 2 2 2 3 4 4 5 5 4 5 5 5 5 5 4 4 4 5 6 6 6 6 6 6 6 6 7
4 3 3 3 2 2 2 2 2 1 1 1 1 1 2 2 2 2 2 2 3 3 3 3 4 4 4 5 5 4 4 4 4 5 5 7 6 5 5 7 7 6 6
4 4 3 3 2 1 1 1 1 1 1 1 1 1 2 2 2 2 2 2 2 3 3 3 4 3 3 4 4 5 4 4 3 4 4 6 7 6 5 7 7 7 6
4 4 3 2 2 1 0 0 1 0 0 0 1 1 2 2 2 2 3 2 2 3 3 3 4 3 3 3 4 4 4 4 3 4 4 3 4 5 5 6 6 5 5
4 4 3 2 1 1 0 1 0 1 0 0 1 1 1 2 3 2 3 2 2 3 3 3 3 3 3 3 3 3 3 3 3 3 3 3 3 3 4 5 5 5 4
3 3 3 1 1 1 1 1 1 1 0 1 1 1 1 2 2 2 2 2 3 2 2 3 3 3 3 3 3 3 2 2 2 3 3 2 3 3 3 4 5 5 4
3 2 2 1 1 1 1 1 1 0 0 1 1 1 2 2 1 2 2 3 3 3 2 3 3 3 3 3 3 2 2 2 2 2 2 2 2 3 3 2 3 3 3
3 3 2 1 1 1 1 1 2 1 1 1 1 2 2 2 1 2 3 3 3 3 3 4 4 4 3 3 3 2 2 2 2 1 1 2 2 2 2 1 1 1 1
2 2 2 1 1 1 1 2 2 2 2 1 1 2 1 2 1 2 3 3 3 3 3 4 4 4 3 3 3 4 2 2 2 1 1 1 1 1 1 0 0 1 1
2 2 2 2 2 2 1 1 1 1 2 1 1 2 1 1 1 1 2 3 3 3 3 5 5 5 5 4 3 3 3 3 2 2 2 2 1 1 1 1 1 1 1
3 3 3 3 2 2 2 3 3 3 3 2 2 2 2 2 1 2 3 3 3 3 3 4 5 5 6 5 4 2 2 1 2 2 3 3 2 2 2 1 2 2 2
3 3 3 3 2 2 2 3 4 4 3 2 2 2 2 2 2 2 2 3 3 3 3 4 4 6 6 6 4 3 3 3 3 3 3 3 2 2 2 2 3 2 2
3 3 3 3 2 2 2 3 4 5 4 3 4 3 3 2 2 2 2 2 3 3 4 4 4 5 5 6 5 4 4 3 4 3 3 4 3 2 2 2 3 3 2
Wind_Direction
356 349 347 354 10 35 48 71 80 84 102 108 108 107 108 106 104 103 111 109 106 104 103 102 100 98 96 92 90 88 87 86 86 85 84 82 82 83 81 78 80 81 78
342 347 356 1 15 40 52 61 77 79 91 107 109 108 107 108 107 105 108 111 110 106 106 103 101 100 98 96 93 91 89 88 88 89 91 89 84 83 80 73 69 80 80
7 7 13 11 17 40 58 59 70 79 86 101 111 111 108 107 108 107 105 108 110 108 106 105 102 101 101 100 97 95 93 91 90 92 103 96 90 85 83 81 80 81 81
9 16 19 20 21 34 61 65 68 77 82 93 101 108 107 105 104 105 104 103 108 109 108 106 103 102 103 103 101 99 96 92 90 97 95 91 92 87 86 84 83 82 81
16 22 23 20 22 30 56 70 68 66 73 92 97 101 107 105 102 102 101 99 103 109 111 109 106 106 105 105 103 101 99 95 93 93 89 88 90 89 87 86 85 85 83
17 20 26 17 16 25 43 67 70 72 65 88 100 99 101 104 104 100 96 97 97 104 111 111 110 109 108 107 106 104 103 103 112 95 93 92 91 91 90 88 89 89 87
6 14 26 21 14 22 34 61 65 75 72 82 105 104 100 101 102 102 97 97 96 102 109 113 113 113 110 108 109 107 104 99 100 97 92 92 91 92 91 91 92 93 90
1 6 18 23 19 19 24 51 63 69 78 76 104 104 101 98 102 101 102 101 101 107 107 111 114 115 113 110 109 110 107 104 104 100 97 96 91 91 89 90 94 97 95
8 4 3 8 13 16 21 35 58 67 76 84 87 100 98 98 99 102 101 102 101 107 111 108 117 117 115 112 110 108 101 94 105 102 102 100 95 93 92 92 96 99 100
4 1 0 358 358 358 5 30 44 71 87 97 92 86 100 105 104 101 104 102 103 106 114 111 112 117 116 112 109 110 114 122 108 105 103 100 96 95 95 95 95 97 100
354 352 352 354 358 354 342 13 35 72 90 111 105 92 101 122 124 123 107 101 106 110 115 113 112 114 116 113 109 116 132 122 110 104 104 94 97 99 98 99 99 99 99
331 335 344 348 351 351 356 358 10 82 125 121 125 124 122 115 112 129 118 109 109 112 116 112 113 122 130 132 128 136 137 126 114 109 102 96 100 103 102 101 106 105 104
302 318 332 342 349 351 2 2 21 12 128 133 128 133 136 119 111 118 123 121 118 121 120 118 126 136 138 138 145 147 138 128 118 112 107 98 100 103 108 108 109 112 110
298 310 322 331 340 353 351 3 5 28 41 72 110 140 139 113 108 120 119 131 128 126 127 129 129 130 140 143 148 145 137 127 120 111 105 95 98 102 108 115 119 119 116
301 305 309 316 328 339 347 349 357 16 359 90 98 120 132 131 134 134 130 135 129 122 131 132 131 131 136 143 144 139 127 122 118 116 111 92 86 93 105 114 113 123 125
302 299 302 305 312 325 340 339 339 341 349 158 121 142 148 121 139 147 142 142 133 128 141 152 139 138 135 140 139 136 128 119 118 116 116 108 86 80 98 103 102 104 107
296 300 298 296 301 300 305 281 350 328 339 199 151 158 148 133 125 149 149 147 143 143 147 147 136 132 126 135 141 135 128 122 123 118 117 118 106 87 85 98 102 100 100
296 303 299 297 291 263 180 204 10 347 22 25 137 144 148 135 129 132 147 145 148 145 142 143 141 137 131 140 145 138 132 125 125 122 117 113 107 103 91 82 85 91 94
301 303 301 282 262 244 173 147 108 17 38 34 86 86 81 108 127 136 133 141 152 146 144 151 147 149 142 139 142 141 140 136 128 122 118 109 103 98 92 84 78 68 70
323 319 304 266 256 237 167 155 155 357 59 39 83 98 97 79 99 132 137 138 147 153 158 163 157 150 150 144 139 140 136 138 127 118 122 119 109 104 95 93 95 74 59
353 347 336 298 251 228 197 201 201 234 231 209 112 121 117 112 109 138 145 145 142 164 173 170 160 152 143 149 149 144 137 138 141 128 134 129 110 109 104 88 74 71 88
335 329 314 289 265 243 232 228 212 231 215 188 152 130 129 128 134 142 149 156 154 165 173 171 164 161 158 164 173 169 176 186 181 187 180 155 133 125 118 93 48 335 300
303 300 288 272 263 252 244 210 188 227 213 187 176 162 134 143 134 139 157 159 164 174 179 179 176 171 176 180 186 192 192 201 181 191 198 194 190 201 205 214 260 270 281
277 280 276 264 259 254 238 222 209 219 219 219 201 192 173 171 168 165 172 170 167 175 190 188 184 182 182 188 195 226 242 174 185 185 201 209 222 236 234 237 241 247 258
273 268 262 262 257 246 230 221 212 214 217 218 196 190 188 192 189 177 178 176 180 187 198 196 187 189 189 193 196 204 213 203 197 200 207 205 218 240 244 242 230 233 244
289 279 268 266 267 257 237 227 215 209 207 216 212 203 204 210 191 178 187 186 192 195 203 205 196 195 197 198 199 199 206 209 203 206 214 210 216 234 243 239 231 231 237
Height
1534 1534 1534 1534 1535 1535 1536 1536 1536 1537 1537 1538 1538 1538 1539 1539 1539 1539 1540 1540 1540 1541 1541 1540 1540 1540 1541 1541 1541 1541 1541 1541 1541 1541 1542 1542 1542 1542 1542 1542 1542 1542 1541
1533 1533 1534 1534 1534 1535 1535 1536 1536 1537 1537 1538 1538 1539 1539 1540 1540 1540 1540 1541 1541 1542 1542 1542 1542 1542 1542 1542 1542 1542 1543 1543 1543 1543 1544 1544 1544 1544 1544 1544 1544 1544 1543
1532 1533 1533 1534 1534 1535 1535 1535 1536 1536 1537 1538 1539 1539 1539 1540 1540 1541 1541 1541 1542 1542 1542 1543 1543 1543 1543 1543 1543 1544 1544 1544 1545 1545 1546 1546 1546 1546 1546 1545 1545 1545 1545
1532 1532 1533 1533 1534 1534 1534 1535 1536 1536 1537 1537 1538 1539 1540 1540 1540 1541 1541 1542 1542 1543 1543 1543 1544 1544 1544 1544 1545 1545 1545 1545 1546 1547 1548 1548 1548 1547 1547 1547 1547 1547 1547
1532 1532 1532 1533 1533 1533 1534 1534 1535 1535 1536 1537 1538 1539 1539 1540 1541 1541 1542 1542 1543 1543 1544 1544 1544 1545 1545 1545 1546 1546 1546 1547 1548 1548 1549 1549 1549 1549 1549 1549 1549 1549 1548
1532 1532 1532 1532 1533 1533 1533 1534 1534 1535 1535 1536 1537 1538 1539 1540 1540 1541 1541 1542 1543 1543 1544 1544 1545 1545 1546 1546 1547 1547 1547 1548 1549 1550 1550 1551 1551 1550 1550 1550 1550 1550 1550
1531 1531 1531 1531 1532 1532 1532 1533 1533 1534 1535 1535 1536 1537 1538 1539 1540 1540 1541 1542 1543 1543 1544 1545 1545 1546 1546 1547 1547 1548 1548 1549 1550 1551 1551 1551 1551 1552 1552 1551 1551 1551 1551
1530 1530 1530 1531 1531 1531 1531 1532 1532 1533 1533 1534 1535 1536 1537 1538 1539 1540 1541 1541 1542 1543 1544 1545 1545 1546 1547 1547 1548 1548 1549 1550 1551 1552 1552 1552 1552 1552 1552 1553 1552 1552 1553
1529 1529 1529 1529 1529 1530 1530 1530 1531 1531 1532 1533 1533 1534 1536 1537 1538 1539 1540 1541 1542 1543 1543 1544 1545 1546 1547 1548 1548 1549 1550 1550 1552 1552 1553 1553 1553 1553 1553 1553 1554 1554 1554
1528 1527 1527 1527 1528 1528 1529 1529 1529 1530 1531 1532 1532 1533 1534 1535 1536 1537 1539 1540 1541 1542 1543 1544 1545 1546 1547 1548 1549 1549 1550 1551 1552 1553 1553 1553 1554 1554 1554 1554 1554 1554 1554
1525 1525 1525 1526 1526 1526 1527 1527 1528 1528 1529 1530 1531 1532 1533 1534 1535 1536 1537 1539 1540 1541 1542 1543 1545 1546 1547 1548 1549 1549 1550 1551 1552 1553 1553 1553 1554 1554 1554 1555 1555 1555 1555
1523 1523 1523 1523 1524 1524 1524 1525 1526 1526 1527 1528 1529 1530 1531 1532 1533 1534 1536 1537 1539 1540 1541 1542 1544 1545 1546 1547 1548 1549 1550 1551 1552 1553 1553 1553 1554 1554 1554 1555 1555 1556 1556
1521 1521 1521 1521 1521 1522 1522 1523 1524 1524 1525 1526 1527 1528 1529 1530 1531 1532 1534 1535 1537 1538 1540 1541 1543 1544 1545 1546 1547 1548 1550 1551 1551 1552 1553 1553 1554 1554 1555 1555 1555 1556 1556
1519 1519 1519 1519 1519 1519 1520 1520 1521 1521 1522 1523 1525 1526 1527 1528 1529 1530 1531 1533 1535 1536 1538 1540 1541 1543 1544 1545 1546 1548 1549 1550 1551 1551 1552 1553 1554 1554 1554 1555 1555 1556 1556
1516 1516 1516 1516 1516 1517 1517 1518 1518 1518 1519 1520 1521 1523 1524 1525 1527 1528 1529 1531 1532 1534 1536 1538 1539 1541 1542 1544 1545 1546 1547 1549 1550 1550 1551 1552 1553 1553 1554 1554 1555 1555 1556
1514 1514 1514 1514 1514 1514 1514 1515 1515 1516 1516 1518 1519 1520 1522 1523 1524 1525 1527 1528 1530 1532 1533 1535 1537 1539 1540 1542 1544 1545 1546 1547 1548 1549 1550 1551 1552 1552 1553 1553 1554 1555 1555
1512 1511 1511 1511 1511 1512 1512 1512 1512 1513 1514 1515 1516 1517 1519 1520 1521 1523 1524 1526 1527 1529 1531 1533 1535 1537 1538 1540 1542 1543 1545 1546 1547 1548 1549 1550 1551 1551 1552 1552 1553 1554 1554
1509 1509 1508 1509 1509 1509 1509 1510 1510 1511 1511 1512 1513 1515 1516 1517 1519 1521 1522 1523 1525 1527 1529 1531 1532 1534 1536 1538 1540 1541 1543 1544 1546 1547 1548 1549 1549 1550 1551 1551 1552 1552 1553
1507 1506 1506 1506 1506 1506 1507 1507 1507 1507 1508 1509 1511 1512 1513 1514 1516 1518 1519 1521 1523 1525 1527 1529 1530 1532 1534 1536 1538 1540 1541 1542 1544 1545 1546 1547 1548 1548 1549 1550 1550 1551 1551
1504 1504 1503 1503 1504 1504 1504 1504 1505 1505 1506 1506 1507 1509 1510 1512 1513 1515 1516 1518 1520 1522 1524 1526 1528 1530 1532 1534 1535 1537 1539 1541 1542 1543 1544 1545 1546 1547 1548 1548 1549 1549 1550
1502 1501 1501 1501 1501 1501 1501 1501 1501 1502 1502 1503 1504 1506 1507 1509 1511 1512 1513 1515 1517 1520 1522 1523 1525 1527 1529 1531 1534 1535 1537 1539 1540 1541 1542 1543 1544 1545 1546 1547 1547 1547 1548
1499 1499 1499 1498 1499 1499 1499 1499 1499 1499 1499 1500 1501 1503 1505 1506 1508 1509 1510 1512 1514 1516 1519 1521 1522 1524 1526 1528 1531 1533 1535 1538 1538 1539 1540 1541 1542 1543 1544 1544 1545 1545 1545
1497 1497 1497 1496 1496 1496 1496 1497 1497 1497 1497 1498 1498 1500 1502 1503 1505 1506 1507 1509 1511 1513 1515 1517 1519 1521 1523 1526 1528 1530 1532 1532 1534 1536 1537 1538 1539 1540 1541 1542 1542 1543 1543
1495 1494 1494 1494 1493 1493 1494 1494 1494 1494 1494 1495 1496 1497 1499 1500 1501 1503 1504 1506 1507 1510 1512 1514 1516 1518 1520 1522 1525 1526 1528 1528 1531 1532 1534 1535 1536 1537 1538 1538 1539 1540 1540
1492 1492 1491 1491 1491 1491 1491 1491 1492 1492 1492 1493 1494 1495 1496 1497 1498 1500 1501 1503 1504 1506 1508 1510 1512 1514 1516 1519 1520 1522 1524 1526 1527 1528 1530 1532 1533 1534 1535 1535 1536 1537 1537
1489 1489 1488 1488 1487 1487 1487 1488 1488 1489 1490 1490 1491 1492 1493 1494 1495 1496 1498 1499 1501 1503 1504 1507 1509 1511 1513 1515 1517 1519 1521 1522 1523 1525 1526 1527 1529 1530 1531 1532 1533 1534 1534